User: anonymous   Login
Location: Kopernik Observatory
(42.0014°N, 76.0372°W)
Time: 16:58:11
(UTC-04:00)
Language:

CENTAUR R/B - Orbit

View from above orbital plane
View from above orbital plane
View from above satellite
View from above satellite

Ground track
Ground track

The orbit data is extracted from the following two-line orbital elements,

1 26906U 01040B   17084.16209271 0.00000000  00000-0  00000-0 0    09
2 26906  63.4525 188.7300 0345000 342.5206  17.4794 13.44005738    08
Epoch (UTC): 25 March 2017 03:53:24
Eccentricity: 0.0345000
inclination: 63.4525°
perigee height: 836 km
apogee height: 1352 km
right ascension of ascending node: 188.7300°
argument of perigee: 342.5206°
revolutions per day: 13.44005738
mean anomaly at epoch: 17.4794°
orbit number at epoch: 0

The dashed part of the orbit path shows where the satellite is in the earth's shadow,  

DLR